When you browse on this site, cookies collect data to enhance your experience and personalize the content and advertising you see.
Visit our Privacy Policy to learn more. By continuing to use the site, you agree to this use of cookies and data.
  • In Österreich
  • Länderverzeichnis
  • Für 7 Tage
  • Wassertemperatur
  • Wetterkarte
  • News
  • Widgets
  • user-avatar
    Anmelden

    Stündliche Wetter Ordino

    Heute, 6 Juni, Samstag

    Zeit Temperatur Niederschläge Wind Luftdruck Luftfeuchtigkeit
    00:00 +8°C° 0 mm 0 m/S 630 mmHg 94%
    01:00 +8°C° 0 mm 0 m/S 629 mmHg 94%
    02:00 +7°C° 0 mm 0 m/S 629 mmHg 94%
    03:00 +7°C° 0 mm 0 m/S 629 mmHg 94%
    04:00 +8°C° 0 mm 0 m/S 629 mmHg 91%
    05:00 +9°C° 0 mm 0 m/S 630 mmHg 89%
    06:00 +11°C° 0 mm 0 m/S 630 mmHg 83%
    07:00 +13°C° 0 mm 1 m/S 631 mmHg 77%
    08:00 +15°C° 0 mm 1 m/S 631 mmHg 70%
    09:00 +16°C° 0 mm 2 m/S 632 mmHg 63%
    10:00 +17°C° 0.2 mm 2 m/S 631 mmHg 63%
    11:00 +17°C° 0.2 mm 2 m/S 631 mmHg 64%
    12:00 +17°C° 0 mm 3 m/S 631 mmHg 66%
    13:00 +16°C° 1 mm 3 m/S 631 mmHg 72%
    14:00 +16°C° 1 mm 2 m/S 630 mmHg 78%
    15:00 +15°C° 1 mm 2 m/S 629 mmHg 83%
    16:00 +14°C° 0.9 mm 1 m/S 629 mmHg 85%
    17:00 +14°C° 0.9 mm 1 m/S 628 mmHg 87%
    18:00 +13°C° 0.9 mm 1 m/S 628 mmHg 89%
    19:00 +12°C° 1.1 mm 1 m/S 628 mmHg 92%
    20:00 +11°C° 1.1 mm 1 m/S 627 mmHg 94%
    21:00 +9°C° 1.1 mm 0 m/S 627 mmHg 97%
    22:00 +10°C° 4.5 mm 1 m/S 627 mmHg 97%
    23:00 +10°C° 4.5 mm 1 m/S 627 mmHg 96%

    Morgen, 7 Juni, Sonntag

    Zeit Temperatur Niederschläge Wind Luftdruck Luftfeuchtigkeit
    00:00 +10°C° 4.5 mm 1 m/S 627 mmHg 96%
    01:00 +9°C° 0.8 mm 1 m/S 627 mmHg 96%
    02:00 +9°C° 0.8 mm 1 m/S 627 mmHg 96%
    03:00 +8°C° 0.8 mm 1 m/S 626 mmHg 95%
    04:00 +8°C° 0.3 mm 1 m/S 627 mmHg 95%
    05:00 +9°C° 0.3 mm 1 m/S 627 mmHg 94%
    06:00 +9°C° 0.3 mm 1 m/S 627 mmHg 93%
    07:00 +9°C° 0.9 mm 1 m/S 628 mmHg 93%
    08:00 +9°C° 0.9 mm 1 m/S 628 mmHg 93%
    09:00 +9°C° 0.9 mm 1 m/S 628 mmHg 93%
    10:00 +9°C° 0.7 mm 1 m/S 628 mmHg 93%
    11:00 +8°C° 0.7 mm 1 m/S 628 mmHg 94%
    12:00 +8°C° 0.7 mm 1 m/S 628 mmHg 94%
    13:00 +8°C° 0.3 mm 1 m/S 628 mmHg 92%
    14:00 +8°C° 0.3 mm 2 m/S 628 mmHg 91%
    15:00 +8°C° 0.3 mm 2 m/S 628 mmHg 89%
    16:00 +8°C° 0.3 mm 2 m/S 628 mmHg 89%
    17:00 +9°C° 0.3 mm 1 m/S 628 mmHg 89%
    18:00 +8°C° 0.3 mm 1 m/S 628 mmHg 89%
    19:00 +7°C° 0.3 mm 1 m/S 628 mmHg 90%
    20:00 +7°C° 0.3 mm 1 m/S 628 mmHg 90%
    21:00 +6°C° 0.3 mm 1 m/S 629 mmHg 91%
    22:00 +6°C° 0.1 mm 1 m/S 629 mmHg 92%
    23:00 +6°C° 0.1 mm 1 m/S 629 mmHg 93%

    übermorgen, 8 Juni, Montag

    Zeit Temperatur Niederschläge Wind Luftdruck Luftfeuchtigkeit
    00:00 +6°C° 0.1 mm 1 m/S 629 mmHg 93%
    01:00 +6°C° 0.1 mm 1 m/S 629 mmHg 94%
    02:00 +6°C° 0.1 mm 1 m/S 629 mmHg 95%
    03:00 +6°C° 0.1 mm 1 m/S 628 mmHg 96%
    04:00 +6°C° 0 mm 1 m/S 629 mmHg 95%
    05:00 +5°C° 0 mm 2 m/S 629 mmHg 94%
    06:00 +5°C° 0 mm 2 m/S 629 mmHg 93%
    07:00 +6°C° 0.1 mm 2 m/S 629 mmHg 88%
    08:00 +7°C° 0.1 mm 2 m/S 630 mmHg 83%
    09:00 +8°C° 0.1 mm 2 m/S 630 mmHg 79%
    10:00 +8°C° 0.1 mm 2 m/S 630 mmHg 74%
    11:00 +9°C° 0.1 mm 2 m/S 630 mmHg 69%
    12:00 +10°C° 0.1 mm 2 m/S 631 mmHg 65%
    13:00 +10°C° 0.2 mm 2 m/S 630 mmHg 65%
    14:00 +10°C° 0.2 mm 2 m/S 630 mmHg 65%
    15:00 +10°C° 0.2 mm 2 m/S 630 mmHg 65%
    16:00 +10°C° 0.2 mm 2 m/S 630 mmHg 67%
    17:00 +9°C° 0.2 mm 2 m/S 630 mmHg 69%
    18:00 +9°C° 0.2 mm 2 m/S 630 mmHg 71%
    19:00 +7°C° 0.1 mm 2 m/S 630 mmHg 79%
    20:00 +6°C° 0.1 mm 2 m/S 630 mmHg 87%
    21:00 +4°C° 0.1 mm 2 m/S 630 mmHg 95%
    22:00 +4°C° 0 mm 2 m/S 630 mmHg 94%
    23:00 +4°C° 0 mm 2 m/S 630 mmHg 94%

    9 Juni, Dienstag

    Zeit Temperatur Niederschläge Wind Luftdruck Luftfeuchtigkeit
    00:00 +4°C° 0 mm 2 m/S 630 mmHg 94%
    01:00 +4°C° 0 mm 2 m/S 630 mmHg 94%
    02:00 +4°C° 0 mm 2 m/S 630 mmHg 94%
    03:00 +4°C° 0 mm 2 m/S 630 mmHg 94%
    04:00 +4°C° 0 mm 2 m/S 630 mmHg 92%
    05:00 +5°C° 0 mm 2 m/S 631 mmHg 89%
    06:00 +6°C° 0 mm 2 m/S 631 mmHg 86%
    07:00 +8°C° 0 mm 2 m/S 632 mmHg 77%
    08:00 +9°C° 0 mm 2 m/S 633 mmHg 67%
    09:00 +12°C° 0 mm 2 m/S 633 mmHg 58%
    10:00 +13°C° 0.2 mm 2 m/S 633 mmHg 60%
    11:00 +13°C° 0.2 mm 1 m/S 633 mmHg 63%
    12:00 +13°C° 0.2 mm 1 m/S 633 mmHg 65%
    13:00 +13°C° 0.9 mm 1 m/S 633 mmHg 70%
    14:00 +12°C° 0.9 mm 1 m/S 632 mmHg 74%
    15:00 +12°C° 0.9 mm 1 m/S 632 mmHg 79%
    16:00 +11°C° 0.8 mm 1 m/S 632 mmHg 82%
    17:00 +11°C° 0.8 mm 1 m/S 632 mmHg 86%
    18:00 +10°C° 0.8 mm 1 m/S 631 mmHg 89%
    19:00 +9°C° 0.2 mm 1 m/S 632 mmHg 90%
    20:00 +8°C° 0.2 mm 1 m/S 632 mmHg 92%
    21:00 +7°C° 0.2 mm 1 m/S 632 mmHg 94%
    22:00 +7°C° 0.1 mm 1 m/S 632 mmHg 94%
    23:00 +6°C° 0.1 mm 1 m/S 632 mmHg 94%

    10 Juni, Mittwoch

    Zeit Temperatur Niederschläge Wind Luftdruck Luftfeuchtigkeit
    00:00 +6°C° 0.1 mm 1 m/S 631 mmHg 94%
    01:00 +6°C° 0.1 mm 1 m/S 631 mmHg 94%
    02:00 +6°C° 0.1 mm 1 m/S 631 mmHg 94%
    03:00 +6°C° 0.1 mm 1 m/S 631 mmHg 95%
    04:00 +6°C° 0.1 mm 1 m/S 631 mmHg 94%
    05:00 +7°C° 0.1 mm 1 m/S 632 mmHg 93%
    06:00 +7°C° 0.1 mm 1 m/S 632 mmHg 92%
    07:00 +8°C° 0 mm 1 m/S 632 mmHg 86%
    08:00 +10°C° 0 mm 1 m/S 633 mmHg 81%
    09:00 +11°C° 0 mm 1 m/S 633 mmHg 75%
    10:00 +12°C° 0.1 mm 1 m/S 633 mmHg 72%
    11:00 +12°C° 0.1 mm 1 m/S 634 mmHg 69%
    12:00 +13°C° 0.1 mm 2 m/S 634 mmHg 66%
    13:00 +13°C° 0.1 mm 2 m/S 633 mmHg 65%
    14:00 +13°C° 0.1 mm 2 m/S 633 mmHg 65%
    15:00 +13°C° 0.1 mm 2 m/S 633 mmHg 64%
    16:00 +12°C° 0.2 mm 2 m/S 633 mmHg 70%
    17:00 +12°C° 0.2 mm 2 m/S 632 mmHg 76%
    18:00 +11°C° 0.2 mm 1 m/S 632 mmHg 81%
    19:00 +10°C° 0 mm 1 m/S 632 mmHg 85%
    20:00 +9°C° 0 mm 1 m/S 632 mmHg 89%
    21:00 +8°C° 0 mm 1 m/S 632 mmHg 92%
    22:00 +8°C° 0 mm 1 m/S 631 mmHg 92%
    23:00 +7°C° 0 mm 1 m/S 631 mmHg 92%

    11 Juni, Donnerstag

    Zeit Temperatur Niederschläge Wind Luftdruck Luftfeuchtigkeit
    00:00 +7°C° 0 mm 1 m/S 631 mmHg 91%
    01:00 +7°C° 0 mm 1 m/S 631 mmHg 92%
    02:00 +6°C° 0 mm 1 m/S 630 mmHg 92%
    03:00 +6°C° 0 mm 1 m/S 630 mmHg 93%
    04:00 +6°C° 0 mm 0 m/S 630 mmHg 90%
    05:00 +7°C° 0 mm 0 m/S 630 mmHg 88%
    06:00 +7°C° 0 mm 0 m/S 630 mmHg 85%
    07:00 +10°C° 0 mm 1 m/S 631 mmHg 79%
    08:00 +12°C° 0 mm 1 m/S 631 mmHg 72%
    09:00 +14°C° 0 mm 2 m/S 632 mmHg 65%
    10:00 +14°C° 0 mm 2 m/S 632 mmHg 66%
    11:00 +14°C° 0 mm 2 m/S 631 mmHg 68%
    12:00 +14°C° 0 mm 2 m/S 631 mmHg 69%
    13:00 +14°C° 0.1 mm 2 m/S 631 mmHg 69%
    14:00 +14°C° 0.1 mm 2 m/S 630 mmHg 69%
    15:00 +14°C° 0.1 mm 2 m/S 630 mmHg 69%
    16:00 +13°C° 0.1 mm 1 m/S 630 mmHg 73%
    17:00 +13°C° 0.1 mm 1 m/S 630 mmHg 76%
    18:00 +12°C° 0.1 mm 1 m/S 630 mmHg 80%
    19:00 +11°C° 0.1 mm 1 m/S 630 mmHg 84%
    20:00 +10°C° 0.1 mm 1 m/S 630 mmHg 87%
    21:00 +8°C° 0.1 mm 0 m/S 629 mmHg 90%
    22:00 +9°C° 0.1 mm 1 m/S 629 mmHg 91%
    23:00 +9°C° 0.1 mm 1 m/S 629 mmHg 91%
    Mehr zeigen